Time,TemperatureF,DewpointF,PressureIn,WindDirection,WindDirectionDegrees,WindSpeedMPH,WindSpeedGustMPH,Humidity,HourlyPrecipIn,Conditions,Clouds,dailyrainin,SolarRadiationWatts/m^2,SoftwareType,DateUTC
2013-01-06 16:33:00,31.0,24.0,-100.00,WSW,241,1.0,7.0,75,0.00,,,0.03,37.000000,,2013-01-06 21:33:00,
2013-01-06 16:43:00,31.0,24.0,-100.00,WSW,241,1.0,7.0,75,0.00,,,0.03,37.000000,,2013-01-06 21:43:00,
2013-01-06 16:53:00,31.0,24.0,-100.00,WSW,241,1.0,7.0,75,0.00,,,0.03,37.000000,,2013-01-06 21:53:00,
2013-01-06 17:02:00,31.0,24.0,-100.00,WSW,241,1.0,7.0,75,0.00,,,0.03,37.000000,,2013-01-06 22:02:00,
2013-01-06 17:33:00,29.0,24.0,-100.00,WNW,295,1.0,4.0,80,0.00,,,0.03,2.000000,,2013-01-06 22:33:00,
2013-01-06 17:43:00,29.0,24.0,-100.00,WNW,295,1.0,4.0,80,0.00,,,0.03,2.000000,,2013-01-06 22:43:00,
2013-01-06 17:53:00,29.0,24.0,-100.00,WNW,295,1.0,4.0,80,0.00,,,0.03,2.000000,,2013-01-06 22:53:00,
2013-01-06 18:02:00,29.0,24.0,-100.00,WNW,295,1.0,4.0,80,0.00,,,0.03,2.000000,,2013-01-06 23:02:00,
2013-01-06 18:33:00,28.0,23.0,-100.00,SW,227,4.0,6.0,81,0.00,,,0.03,0.000000,,2013-01-06 23:33:00,
2013-01-06 18:43:00,28.0,23.0,-100.00,SW,227,4.0,6.0,81,0.00,,,0.03,0.000000,,2013-01-06 23:43:00,
2013-01-06 18:53:00,28.0,23.0,-100.00,SW,227,4.0,6.0,81,0.00,,,0.03,0.000000,,2013-01-06 23:53:00,
2013-01-06 19:02:00,28.0,23.0,-100.00,SW,227,4.0,6.0,81,0.00,,,0.03,0.000000,,2013-01-07 00:02:00,
2013-01-06 19:33:00,25.0,21.0,-100.00,West,274,2.0,4.0,86,0.00,,,0.03,0.000000,,2013-01-07 00:33:00,
2013-01-06 19:43:00,25.0,21.0,-100.00,West,274,2.0,4.0,86,0.00,,,0.03,0.000000,,2013-01-07 00:43:00,
2013-01-06 19:53:00,25.0,21.0,-100.00,West,274,2.0,4.0,86,0.00,,,0.03,0.000000,,2013-01-07 00:53:00,
2013-01-06 20:02:00,25.0,21.0,-100.00,West,274,2.0,4.0,86,0.00,,,0.03,0.000000,,2013-01-07 01:02:00,
2013-01-06 20:32:00,24.0,21.0,-100.00,NNE,22,0.0,3.0,88,0.00,,,0.03,0.000000,,2013-01-07 01:32:00,
2013-01-06 20:43:00,24.0,21.0,-100.00,NNE,22,0.0,3.0,88,0.00,,,0.03,0.000000,,2013-01-07 01:43:00,
2013-01-06 20:53:00,24.0,21.0,-100.00,NNE,22,0.0,3.0,88,0.00,,,0.03,0.000000,,2013-01-07 01:53:00,
2013-01-06 21:02:00,24.0,21.0,-100.00,NNE,22,0.0,3.0,88,0.00,,,0.03,0.000000,,2013-01-07 02:02:00,
2013-01-06 21:32:00,24.0,21.0,-100.00,North,357,0.0,1.0,89,0.00,,,0.03,0.000000,,2013-01-07 02:32:00,
2013-01-06 21:43:00,24.0,21.0,-100.00,North,357,0.0,1.0,89,0.00,,,0.03,0.000000,,2013-01-07 02:43:00,
2013-01-06 21:53:00,24.0,21.0,-100.00,North,357,0.0,1.0,89,0.00,,,0.03,0.000000,,2013-01-07 02:53:00,
2013-01-06 22:02:00,24.0,21.0,-100.00,North,357,0.0,1.0,89,0.00,,,0.03,0.000000,,2013-01-07 03:02:00,
2013-01-06 22:33:00,21.0,19.0,-100.00,West,269,1.0,2.0,92,0.00,,,0.03,0.000000,,2013-01-07 03:33:00,
2013-01-06 22:43:00,21.0,19.0,-100.00,West,269,1.0,2.0,92,0.00,,,0.03,0.000000,,2013-01-07 03:43:00,
2013-01-06 22:53:00,21.0,19.0,-100.00,West,269,1.0,2.0,92,0.00,,,0.03,0.000000,,2013-01-07 03:53:00,
2013-01-06 23:02:00,21.0,19.0,-100.00,West,269,1.0,2.0,92,0.00,,,0.03,0.000000,,2013-01-07 04:02:00,
2013-01-06 23:33:00,19.0,18.0,-100.00,NNE,30,1.0,3.0,94,0.00,,,0.03,0.000000,,2013-01-07 04:33:00,
2013-01-06 23:42:00,19.0,18.0,-100.00,NNE,30,1.0,3.0,94,0.00,,,0.03,0.000000,,2013-01-07 04:42:00,
2013-01-06 23:53:00,19.0,18.0,-100.00,NNE,30,1.0,3.0,94,0.00,,,0.03,0.000000,,2013-01-07 04:53:00,